[[{"header":{"parameterUnit":"m.s-1","parameterCategory":1,"la1":30.2991,"la2":30.254,"lo1":-89.0895,"lo2":-89.0444,"dy":0.0017,"dx":0.0017,"nx":28,"ny":28,"refTime":"2023-09-23T03:00:00:Z","depth":0,"parameterNumber":2,"parameterNumberName":"U-component_of_WINDS"},"data":[0,0,0,0,0,0,0,0,0,0,0,0,0,0,0,0,0,0,0,0,0,0,0,0,0,0,0,0,0,0,0,0,0,0,0,0,0,0,0,0,0,0,0,0,0,0,0,0,0,0,0,0,0,0,0,0,0,0,-0.3548,-0.3548,0,-0.352,-0.352,-0.352,-0.3495,-0.3494,-0.3494,-0.3494,-0.3465,-0.3465,-0.3464,0,0,0,0,0,0,0,0,0,0,0,0,0,-0.358,-0.3579,-0.3548,-0.3548,-0.3547,-0.3521,-0.352,-0.352,-0.3495,-0.3494,-0.3494,-0.3494,-0.3465,-0.3465,-0.3464,0,0,0,0,0,0,0,0,0,0,0,0,0,-0.356,-0.3579,-0.3548,-0.3532,-0.353,-0.3521,-0.352,-0.352,-0.3495,-0.3494,-0.3494,-0.3494,-0.3466,-0.3465,-0.3464,-0.3469,0,0,-0.3462,-0.3462,0,0,0,0,0,0,0,0,-0.3562,-0.3559,-0.3534,-0.3533,-0.3531,-0.3511,-0.3521,-0.3503,-0.3495,-0.3508,-0.3494,-0.3493,-0.3481,-0.3479,-0.3475,-0.3468,-0.3466,-0.3462,-0.3462,-0.3461,-0.3461,0,0,0,0,0,0,0,-0.3563,-0.356,-0.3537,-0.3534,-0.3532,-0.3526,-0.3523,-0.3517,-0.3497,-0.3507,-0.3505,-0.3502,-0.348,-0.3475,-0.3474,-0.3466,-0.3462,-0.3461,-0.3461,-0.3461,-0.3463,-0.3463,0,0,0,0,0,0,-0.3567,-0.3562,-0.3538,-0.3536,-0.3545,-0.3526,-0.3522,-0.3518,-0.3497,-0.3494,-0.3503,-0.3501,-0.3477,-0.3475,-0.3473,-0.3478,-0.3461,-0.3461,-0.346,-0.3462,-0.3463,-0.3463,0,0,0,0,0,0,-0.3568,-0.3565,-0.3539,-0.3548,-0.3545,-0.3526,-0.3521,-0.3517,-0.3513,-0.3494,-0.349,-0.3502,-0.3476,-0.3474,-0.347,-0.3476,-0.346,-0.346,-0.3462,-0.3463,-0.3463,-0.3488,0,0,0,0,0,0,-0.3569,-0.3565,-0.3567,-0.3549,-0.3544,-0.3537,-0.3521,-0.3517,-0.3512,-0.351,-0.3492,-0.3489,-0.3476,-0.3472,-0.347,-0.3475,-0.3459,-0.3461,-0.3462,-0.3463,-0.3486,-0.3489,-0.3492,0,0,0,0,0,-0.357,-0.3574,-0.3567,-0.3564,-0.3546,-0.3538,-0.3535,-0.352,-0.3512,-0.3514,-0.3502,-0.349,-0.3476,-0.3471,-0.3469,-0.3474,-0.3461,-0.3462,-0.3463,-0.3485,-0.3488,-0.3491,0,0,0,0,0,0,-0.3593,-0.3571,-0.3563,-0.3562,-0.3552,-0.3533,-0.3535,-0.3524,-0.3516,-0.3514,-0.3495,-0.3492,-0.3491,-0.3482,-0.3477,-0.3479,-0.3467,-0.3467,-0.3484,-0.3487,-0.349,-0.3493,-0.3458,0,0,0,0,0,-0.3598,-0.3593,-0.3575,-0.3575,-0.3571,-0.3554,-0.355,-0.3539,-0.3528,-0.3523,-0.3511,-0.3501,-0.3494,-0.349,-0.3483,-0.3485,-0.3481,-0.3487,-0.349,-0.3492,-0.3493,-0.3495,-0.3498,-0.3467,-0.3467,-0.3467,0,0,-0.3608,-0.3596,-0.3594,-0.358,-0.3571,-0.3567,-0.355,-0.3546,-0.3543,-0.3523,-0.3519,-0.351,-0.3497,-0.3497,-0.3496,-0.349,-0.3501,-0.3494,-0.3496,-0.3495,-0.3496,-0.3499,-0.3502,-0.3468,-0.3468,-0.3468,0,0,-0.3625,-0.3615,-0.3615,-0.3606,-0.3593,-0.3582,-0.3582,-0.3566,-0.3559,-0.3555,-0.354,-0.3536,-0.3525,-0.3517,-0.3511,-0.3527,-0.3515,-0.3525,-0.3539,-0.3541,-0.3543,-0.3545,-0.3552,-0.3554,-0.3526,-0.3526,-0.3526,0,-0.3639,-0.3633,-0.3616,-0.3614,-0.3608,-0.359,-0.359,-0.3583,-0.3568,-0.3565,-0.3558,-0.3545,-0.3535,-0.3533,-0.3537,-0.3532,-0.3533,-0.3527,-0.3544,-0.3546,-0.3548,-0.3554,-0.3556,-0.3527,-0.3527,-0.3527,-0.3527,0,-0.3652,-0.3647,-0.3649,-0.3636,-0.363,-0.3629,-0.3613,-0.361,-0.36,-0.359,-0.3587,-0.3574,-0.3565,-0.3564,-0.3553,-0.3561,-0.3557,-0.3547,-0.3535,-0.3552,-0.3558,-0.356,-0.3529,-0.3528,-0.3528,-0.3528,0,0,-0.3682,-0.366,-0.3661,-0.3656,-0.364,-0.3637,-0.3635,-0.3626,-0.3624,-0.3615,-0.3614,-0.3605,-0.3597,-0.359,-0.3579,-0.3581,-0.3595,-0.3571,-0.357,-0.3576,-0.3604,-0.3612,-0.3615,-0.3587,-0.3588,-0.3588,-0.3605,0,-0.3697,-0.3693,-0.3679,-0.368,-0.3676,-0.3659,-0.3658,-0.3648,-0.3639,-0.3635,-0.3624,-0.3619,-0.3607,-0.3604,-0.3604,-0.3593,-0.36,-0.3592,-0.3587,-0.3587,-0.3591,-0.3617,-0.3626,-0.3642,-0.3607,-0.3607,-0.3608,0,-0.3714,-0.3706,-0.3707,-0.3692,-0.369,-0.3689,-0.3681,-0.3677,-0.3666,-0.3659,-0.3653,-0.3641,-0.3639,-0.3628,-0.3625,-0.362,-0.3617,-0.3611,-0.3612,-0.3611,-0.3599,-0.3618,-0.3647,-0.365,-0.361,-0.361,-0.361,0,-0.3737,-0.3727,-0.3726,-0.3722,-0.3705,-0.3705,-0.3698,-0.3687,-0.3683,-0.3675,-0.3673,-0.3665,-0.3661,-0.3656,-0.3642,-0.3635,-0.3642,-0.3629,-0.3637,-0.3637,-0.3639,-0.364,-0.3669,-0.3636,-0.3636,-0.3636,-0.3636,0,-0.3756,-0.3757,-0.3737,-0.3737,-0.3738,-0.3722,-0.3723,-0.3715,-0.3705,-0.3703,-0.3688,-0.3686,-0.3668,-0.3665,-0.3654,-0.3655,-0.3652,-0.3647,-0.3645,-0.3649,-0.365,-0.3648,-0.3647,-0.3637,-0.3637,-0.3637,-0.3637,0,-0.3783,-0.3769,-0.3767,-0.3752,-0.3748,-0.375,-0.3736,-0.3736,-0.3726,-0.3724,-0.3722,-0.3706,-0.3702,-0.3688,-0.3679,-0.3672,-0.3676,-0.367,-0.368,-0.3678,-0.3687,-0.3687,-0.3717,-0.3721,-0.3685,-0.3685,-0.3685,0,-0.3796,-0.3797,-0.3781,-0.3779,-0.3773,-0.3769,-0.3765,-0.375,-0.3747,-0.3735,-0.3736,-0.3731,-0.3725,-0.3719,-0.3707,-0.3701,-0.3695,-0.3706,-0.3694,-0.3699,-0.3697,-0.3697,-0.3698,-0.3709,-0.3709,-0.371,-0.371,0,-0.3821,-0.3815,-0.381,-0.3803,-0.3799,-0.3793,-0.3785,-0.3784,-0.3767,-0.3764,-0.376,-0.3756,-0.3748,-0.3743,-0.3735,-0.3728,-0.3717,-0.3714,-0.3716,-0.3721,-0.3727,-0.3725,-0.3688,-0.3713,-0.3713,-0.3713,-0.3713,-0.3713,-0.3842,-0.3843,-0.3832,-0.3828,-0.3821,-0.3815,-0.3814,-0.3804,-0.38,-0.3792,-0.3783,-0.378,-0.3771,-0.3759,-0.3753,-0.3751,-0.3744,-0.3746,-0.3747,-0.3748,-0.3751,-0.3727,-0.3749,-0.3749,-0.3749,-0.3749,-0.3749,0,-0.3868,-0.3861,-0.3857,-0.3848,-0.3844,-0.3834,-0.3826,-0.3824,-0.3821,-0.3813,-0.3808,-0.3804,-0.3799,-0.3787,-0.3781,-0.3782,-0.3776,-0.3781,-0.3781,-0.378,-0.3756,-0.3756,-0.3785,-0.3785,-0.3785,-0.3785,-0.3785,-0.3785,-0.3881,-0.3882,-0.3874,-0.3871,-0.3864,-0.3861,-0.3857,-0.3852,-0.3846,-0.3841,-0.3837,-0.3829,-0.382,-0.3814,-0.3809,-0.3806,-0.3805,-0.3811,-0.3806,-0.3785,-0.3781,-0.3778,-0.3778,-0.3811,-0.3811,-0.383,-0.383,-0.383]},{"header":{"parameterUnit":"m.s-1","parameterCategory":1,"la1":30.2991,"la2":30.254,"lo1":-89.0895,"lo2":-89.0444,"dy":0.0017,"dx":0.0017,"nx":28,"ny":28,"refTime":"2023-09-23T03:00:00:Z","depth":0,"parameterNumber":3,"parameterNumberName":"V-component_of_WINDS"},"data":[0,0,0,0,0,0,0,0,0,0,0,0,0,0,0,0,0,0,0,0,0,0,0,0,0,0,0,0,0,0,0,0,0,0,0,0,0,0,0,0,0,0,0,0,0,0,0,0,0,0,0,0,0,0,0,0,0,0,3.5136,3.5136,0,3.5144,3.5144,3.5144,3.5125,3.5124,3.5123,3.5123,3.513,3.5131,3.5132,0,0,0,0,0,0,0,0,0,0,0,0,0,3.5102,3.5103,3.5136,3.5136,3.5136,3.5144,3.5144,3.5144,3.5125,3.5124,3.5123,3.5123,3.513,3.5131,3.5132,0,0,0,0,0,0,0,0,0,0,0,0,0,3.5114,3.5103,3.5136,3.5127,3.5127,3.5144,3.5144,3.5144,3.5125,3.5124,3.5123,3.5122,3.513,3.5131,3.5132,3.5157,0,0,3.5135,3.5136,0,0,0,0,0,0,0,0,3.5114,3.5116,3.5128,3.5128,3.5127,3.5132,3.5135,3.5149,3.5125,3.5126,3.5123,3.5122,3.5132,3.5133,3.5136,3.5158,3.5158,3.5136,3.5136,3.5137,3.5137,0,0,0,0,0,0,0,3.5113,3.5115,3.5139,3.5129,3.5128,3.5123,3.5123,3.5137,3.5134,3.5125,3.5124,3.5125,3.5131,3.5135,3.5136,3.5158,3.5135,3.5137,3.5137,3.5138,3.5201,3.5202,0,0,0,0,0,0,3.5113,3.5114,3.5139,3.5139,3.5118,3.5124,3.5125,3.5132,3.5133,3.5133,3.5126,3.5124,3.5133,3.5135,3.5136,3.5166,3.5137,3.5138,3.5138,3.52,3.5201,3.5202,0,0,0,0,0,0,3.5113,3.5116,3.5138,3.5126,3.5129,3.5126,3.5133,3.5132,3.5136,3.5134,3.5133,3.5131,3.5133,3.5135,3.5152,3.5166,3.5138,3.5139,3.5199,3.52,3.5202,3.5226,0,0,0,0,0,0,3.5112,3.5115,3.5125,3.5127,3.513,3.5155,3.5134,3.5133,3.5138,3.5136,3.5138,3.5138,3.5132,3.5151,3.5154,3.5167,3.514,3.5198,3.52,3.5201,3.5224,3.5228,3.5232,0,0,0,0,0,3.5111,3.5131,3.5126,3.5129,3.5142,3.5155,3.5157,3.5151,3.514,3.5149,3.5148,3.5138,3.5164,3.5153,3.5156,3.517,3.5197,3.5199,3.5201,3.5222,3.5227,3.5231,0,0,0,0,0,0,3.5131,3.5131,3.5125,3.5147,3.5152,3.5152,3.5164,3.5156,3.5163,3.5161,3.5153,3.5153,3.5172,3.5173,3.516,3.5195,3.5179,3.5181,3.5193,3.5198,3.5202,3.5201,3.5141,0,0,0,0,0,3.5138,3.5149,3.5149,3.5169,3.5171,3.5167,3.5173,3.5168,3.5172,3.5173,3.5173,3.5177,3.5186,3.5192,3.5201,3.5224,3.5224,3.5235,3.5239,3.5242,3.5245,3.5257,3.5262,3.521,3.521,3.521,0,0,3.5153,3.5155,3.5162,3.5173,3.5175,3.5187,3.5169,3.5182,3.519,3.5175,3.5192,3.5192,3.5196,3.5216,3.5225,3.5217,3.5259,3.5245,3.5248,3.5248,3.526,3.5265,3.5269,3.5211,3.5211,3.5211,0,0,3.5185,3.5188,3.5205,3.5208,3.5212,3.521,3.5214,3.5216,3.5215,3.5232,3.5221,3.5231,3.5247,3.525,3.5253,3.5288,3.5278,3.5291,3.5311,3.5323,3.5327,3.533,3.5342,3.5347,3.5293,3.5293,3.5293,0,3.5203,3.522,3.5214,3.5228,3.5233,3.522,3.5237,3.524,3.5247,3.525,3.5241,3.5261,3.5263,3.5284,3.5292,3.5296,3.53,3.529,3.5327,3.533,3.5333,3.5345,3.5349,3.5295,3.5295,3.5295,3.5294,0,3.5241,3.5253,3.5266,3.5274,3.528,3.5295,3.5291,3.5298,3.5293,3.5291,3.5308,3.531,3.5318,3.5323,3.5318,3.5343,3.5338,3.5328,3.5312,3.534,3.535,3.5355,3.5297,3.5296,3.5296,3.5296,0,0,3.5286,3.529,3.5295,3.5298,3.5303,3.5312,3.5326,3.5335,3.5341,3.5346,3.5358,3.5372,3.5363,3.5367,3.5362,3.5373,3.5399,3.5361,3.5361,3.5368,3.5427,3.5434,3.544,3.5394,3.5394,3.5395,3.5427,0,3.5318,3.5343,3.5338,3.5363,3.5374,3.5362,3.5375,3.5379,3.5378,3.5386,3.5385,3.5395,3.5383,3.5385,3.5395,3.5394,3.5411,3.5392,3.5404,3.5404,3.5403,3.5445,3.5452,3.5482,3.5431,3.5432,3.5432,0,3.5358,3.5366,3.5391,3.5394,3.5398,3.541,3.5417,3.5426,3.543,3.5429,3.5434,3.5427,3.5441,3.5425,3.5444,3.5431,3.5436,3.5436,3.5437,3.5437,3.5419,3.5446,3.5492,3.5496,3.5439,3.5438,3.5438,0,3.5388,3.5404,3.5422,3.5425,3.5428,3.5437,3.5439,3.5442,3.5447,3.5454,3.5457,3.5466,3.547,3.5476,3.5471,3.546,3.5491,3.5475,3.549,3.549,3.5496,3.5496,3.5543,3.55,3.55,3.55,3.55,0,3.5424,3.544,3.5435,3.5446,3.5463,3.5457,3.5475,3.5475,3.5478,3.5489,3.5479,3.5489,3.5483,3.5492,3.5488,3.5504,3.5507,3.5505,3.5504,3.5506,3.5506,3.5508,3.5506,3.5501,3.5501,3.5501,3.5501,0,3.5459,3.5457,3.5475,3.5477,3.5478,3.5491,3.5493,3.5503,3.5501,3.5514,3.5517,3.5515,3.5525,3.5521,3.5532,3.553,3.555,3.5546,3.5549,3.5548,3.5562,3.5561,3.5612,3.5619,3.5573,3.5573,3.5573,0,3.5482,3.5494,3.5498,3.5504,3.5507,3.5517,3.5523,3.5518,3.5524,3.553,3.5539,3.5549,3.5556,3.5573,3.5572,3.5581,3.5577,3.5594,3.5578,3.5579,3.5576,3.5575,3.5576,3.5597,3.5598,3.5598,3.5598,0,3.5522,3.5521,3.553,3.5538,3.5546,3.5552,3.5558,3.5563,3.5558,3.5566,3.5577,3.5583,3.5594,3.5604,3.5611,3.5612,3.5605,3.5604,3.5608,3.5609,3.561,3.5609,3.5557,3.5602,3.5602,3.5602,3.5601,3.5601,3.5552,3.5562,3.5566,3.5577,3.558,3.5586,3.5595,3.5595,3.5604,3.5613,3.561,3.5622,3.5626,3.5635,3.5638,3.5647,3.564,3.5646,3.5647,3.5648,3.565,3.5609,3.5648,3.5648,3.5648,3.5648,3.5648,0,3.5591,3.5594,3.5603,3.5611,3.562,3.5612,3.5618,3.5625,3.5636,3.5641,3.5648,3.566,3.567,3.567,3.5678,3.5686,3.5682,3.5688,3.5687,3.5687,3.5656,3.5651,3.5691,3.5691,3.5691,3.5691,3.5691,3.5691,3.5613,3.5629,3.5628,3.5647,3.5649,3.5661,3.5665,3.567,3.5674,3.5688,3.5696,3.5696,3.5698,3.5707,3.5715,3.5715,3.5718,3.5725,3.5724,3.5694,3.569,3.5686,3.5681,3.5726,3.5726,3.5755,3.5755,3.5755]}]]